DAL011 TNCM-KMIA

Flight info

Callsign DAL011
Flight time N/A
Altitude 34000
Route MODOR2 JUICE B520 STT RTE6 SJU DCT ACONY Y308 MADIZ VIICE2
Aircraft A321/M-SDE3FGHIRWY/LB1

Departure

Time N/A
Airport Princess Juliana International Airport (TNCM)

Arrival

Time 2026-04-30 20:13
Airport Miami International Airport (KMIA)
Time Latitude Longitude Altitude Speed Heading
2026-04-30 17:39 18.19994 -64.07658 17571 ft 427 kts 278°
2026-04-30 17:41 18.24142 -64.32614 19885 ft 438 kts 277°
2026-04-30 17:42 18.25187 -64.38949 20434 ft 441 kts 277°
2026-04-30 17:42 18.26771 -64.48527 21195 ft 445 kts 277°
2026-04-30 17:43 18.27834 -64.54954 21672 ft 447 kts 277°
2026-04-30 17:44 18.29431 -64.64678 22358 ft 451 kts 277°
2026-04-30 17:44 18.31038 -64.74488 23034 ft 455 kts 277°
2026-04-30 17:46 18.33713 -64.90937 24376 ft 453 kts 277°
2026-04-30 17:47 18.34905 -65.03893 25649 ft 442 kts 260°
2026-04-30 17:48 18.31407 -65.16167 26871 ft 436 kts 253°
2026-04-30 17:48 18.29796 -65.25466 27793 ft 432 kts 272°
2026-04-30 17:49 18.32124 -65.37830 29099 ft 428 kts 281°
2026-04-30 17:50 18.34576 -65.49732 30318 ft 421 kts 281°
2026-04-30 17:51 18.36414 -65.58687 31224 ft 413 kts 281°
2026-04-30 17:52 18.38217 -65.67472 32179 ft 405 kts 280°
2026-04-30 17:53 18.41130 -65.81744 33799 ft 393 kts 280°
2026-04-30 17:54 18.43429 -65.93049 33980 ft 397 kts 280°
2026-04-30 17:55 18.48642 -66.03011 33982 ft 418 kts 309°
2026-04-30 17:56 18.52487 -66.07132 33947 ft 412 kts 309°
2026-04-30 17:58 18.65153 -66.19688 33944 ft 419 kts 309°
2026-04-30 18:00 18.81996 -66.36814 33941 ft 422 kts 309°
2026-04-30 18:01 18.92537 -66.47630 33970 ft 419 kts 304°
2026-04-30 18:02 19.02426 -66.62672 33947 ft 418 kts 299°
2026-04-30 18:04 19.12306 -66.77943 33962 ft 422 kts 299°
2026-04-30 18:06 19.25579 -66.98515 33959 ft 425 kts 299°
2026-04-30 18:08 19.37229 -67.16596 33999 ft 423 kts 298°
2026-04-30 18:10 19.50422 -67.37184 33996 ft 422 kts 298°
2026-04-30 18:11 19.61934 -67.55179 34002 ft 421 kts 297°
2026-04-30 18:13 19.70096 -67.67966 34019 ft 418 kts 297°
2026-04-30 18:14 19.78199 -67.80707 34008 ft 416 kts 297°
2026-04-30 18:15 19.87892 -67.95979 33997 ft 415 kts 297°
2026-04-30 18:16 19.94321 -68.06127 33995 ft 415 kts 297°
2026-04-30 18:17 19.97570 -68.11252 33994 ft 415 kts 297°
2026-04-30 18:18 20.02379 -68.18864 33995 ft 415 kts 297°
2026-04-30 18:18 20.05591 -68.23963 33998 ft 415 kts 297°
2026-04-30 18:19 20.08809 -68.29066 33989 ft 415 kts 297°
2026-04-30 18:19 20.12032 -68.34166 33994 ft 415 kts 297°
2026-04-30 18:20 20.15247 -68.39270 33995 ft 415 kts 297°
2026-04-30 18:20 20.18457 -68.44383 33997 ft 415 kts 297°
2026-04-30 18:21 20.21661 -68.49500 33997 ft 416 kts 297°
2026-04-30 18:21 20.24868 -68.54614 34006 ft 416 kts 297°
2026-04-30 18:22 20.27933 -68.59817 34000 ft 413 kts 294°
2026-04-30 18:22 20.32171 -68.67784 33996 ft 412 kts 293°
2026-04-30 18:23 20.35013 -68.73086 33993 ft 412 kts 293°
2026-04-30 18:23 20.37890 -68.78375 33990 ft 412 kts 294°
2026-04-30 18:24 20.41729 -68.85404 33988 ft 412 kts 294°
2026-04-30 18:25 20.45078 -68.91556 33985 ft 413 kts 294°
2026-04-30 18:25 20.49398 -68.99540 33971 ft 416 kts 294°
2026-04-30 18:26 20.53283 -69.06713 33974 ft 419 kts 294°
2026-04-30 18:27 20.57643 -69.14770 33970 ft 420 kts 295°
2026-04-30 18:28 20.62036 -69.22884 33974 ft 422 kts 295°
2026-04-30 18:28 20.66444 -69.31053 33980 ft 424 kts 295°
2026-04-30 18:29 20.72344 -69.42003 33986 ft 426 kts 295°
2026-04-30 18:30 20.78240 -69.52979 33988 ft 426 kts 295°
2026-04-30 18:31 20.82668 -69.61240 33982 ft 428 kts 295°
2026-04-30 18:32 20.87118 -69.69527 33978 ft 429 kts 295°
2026-04-30 18:33 20.91568 -69.77842 33969 ft 431 kts 296°
2026-04-30 18:33 20.96042 -69.86212 33970 ft 433 kts 296°
2026-04-30 18:34 21.00496 -69.94586 33970 ft 434 kts 296°
2026-04-30 18:35 21.03495 -70.00214 33970 ft 435 kts 296°
2026-04-30 18:35 21.06496 -70.05840 33974 ft 435 kts 296°
2026-04-30 18:36 21.10984 -70.14293 33979 ft 436 kts 296°
2026-04-30 18:37 21.15480 -70.22768 33992 ft 436 kts 296°
2026-04-30 18:37 21.18480 -70.28423 33994 ft 436 kts 296°
2026-04-30 18:38 21.21482 -70.34078 33994 ft 436 kts 296°
2026-04-30 18:38 21.24477 -70.39736 33994 ft 436 kts 296°
2026-04-30 18:39 21.27443 -70.45360 33991 ft 436 kts 296°
2026-04-30 18:39 21.30428 -70.51021 33999 ft 436 kts 296°
2026-04-30 18:40 21.33417 -70.56699 33989 ft 437 kts 296°
2026-04-30 18:40 21.36414 -70.62380 33982 ft 438 kts 296°
2026-04-30 18:41 21.39412 -70.68070 33984 ft 438 kts 296°
2026-04-30 18:41 21.42404 -70.73772 33985 ft 438 kts 296°
2026-04-30 18:42 21.45392 -70.79474 33986 ft 439 kts 296°
2026-04-30 18:42 21.49893 -70.88042 33991 ft 439 kts 296°
2026-04-30 18:45 21.65907 -71.19818 33988 ft 440 kts 295°
2026-04-30 18:46 21.68723 -71.25607 33991 ft 440 kts 295°
2026-04-30 18:46 21.71567 -71.31443 33995 ft 441 kts 295°
2026-04-30 18:47 21.74403 -71.37294 33981 ft 441 kts 295°
2026-04-30 18:47 21.77242 -71.43150 33981 ft 442 kts 295°
2026-04-30 18:48 21.80083 -71.49023 33985 ft 442 kts 295°
2026-04-30 18:48 21.82926 -71.54898 33989 ft 443 kts 295°
2026-04-30 18:49 21.85769 -71.60779 33983 ft 443 kts 295°
2026-04-30 18:49 21.88611 -71.66679 33983 ft 444 kts 295°
2026-04-30 18:50 21.91450 -71.72578 33984 ft 444 kts 295°
2026-04-30 18:50 21.94297 -71.78486 33989 ft 444 kts 295°
2026-04-30 18:51 21.97134 -71.84390 33987 ft 444 kts 295°
2026-04-30 18:51 21.99980 -71.90307 33989 ft 444 kts 295°
2026-04-30 18:52 22.02821 -71.96236 33988 ft 445 kts 295°
2026-04-30 18:52 22.05656 -72.02175 33988 ft 446 kts 295°
2026-04-30 18:53 22.08499 -72.08114 33987 ft 446 kts 295°
2026-04-30 18:53 22.11346 -72.14065 33989 ft 447 kts 295°
2026-04-30 18:54 22.14178 -72.19995 33982 ft 448 kts 295°
2026-04-30 18:54 22.17058 -72.26025 33981 ft 450 kts 295°
2026-04-30 18:55 22.19899 -72.31990 33977 ft 451 kts 295°
2026-04-30 18:55 22.24194 -72.41040 33981 ft 452 kts 295°
2026-04-30 18:56 22.28502 -72.50106 33989 ft 453 kts 295°
2026-04-30 18:57 22.32810 -72.59191 33994 ft 453 kts 295°
2026-04-30 18:57 22.35679 -72.65255 33994 ft 453 kts 295°
2026-04-30 18:58 22.39983 -72.74362 33996 ft 454 kts 295°
2026-04-30 18:59 22.44282 -72.83475 34000 ft 454 kts 295°
2026-04-30 19:00 22.50017 -72.95645 34001 ft 454 kts 296°
2026-04-30 19:01 22.55744 -73.07843 34005 ft 455 kts 296°
2026-04-30 19:02 22.60036 -73.17006 33999 ft 455 kts 296°
2026-04-30 19:03 22.65734 -73.29235 33993 ft 455 kts 296°
2026-04-30 19:04 22.71419 -73.41432 34006 ft 453 kts 298°
2026-04-30 19:05 22.77075 -73.53617 33997 ft 452 kts 298°
2026-04-30 19:06 22.82705 -73.65750 33989 ft 452 kts 299°
2026-04-30 19:06 22.86935 -73.74892 33985 ft 452 kts 299°
2026-04-30 19:07 22.91163 -73.84057 33980 ft 453 kts 299°
2026-04-30 19:08 22.96803 -73.96277 34003 ft 453 kts 299°
2026-04-30 19:09 23.01009 -74.05450 33991 ft 453 kts 299°
2026-04-30 19:09 23.03804 -74.11527 33995 ft 452 kts 299°
2026-04-30 19:10 23.09408 -74.23758 33991 ft 452 kts 298°
2026-04-30 19:11 23.13610 -74.32942 33997 ft 452 kts 298°
2026-04-30 19:12 23.16400 -74.39066 33992 ft 452 kts 298°
2026-04-30 19:12 23.19186 -74.45182 33999 ft 451 kts 298°
2026-04-30 19:13 23.24751 -74.57395 33997 ft 450 kts 298°
2026-04-30 19:14 23.27521 -74.63495 33991 ft 450 kts 298°
2026-04-30 19:14 23.29817 -74.68567 33990 ft 450 kts 298°
2026-04-30 19:15 23.32581 -74.74662 34008 ft 448 kts 298°
2026-04-30 19:15 23.36692 -74.83760 34006 ft 445 kts 298°
2026-04-30 19:16 23.39369 -74.89828 34000 ft 445 kts 293°
2026-04-30 19:17 23.42344 -74.99413 33994 ft 445 kts 290°
2026-04-30 19:17 23.45259 -75.09008 33997 ft 444 kts 290°
2026-04-30 19:18 23.48174 -75.18570 34005 ft 443 kts 290°
2026-04-30 19:19 23.50102 -75.24925 34001 ft 442 kts 290°
2026-04-30 19:19 23.52977 -75.34455 33996 ft 441 kts 290°
2026-04-30 19:20 23.54894 -75.40796 33994 ft 440 kts 290°
2026-04-30 19:21 23.57767 -75.50293 33994 ft 439 kts 290°
2026-04-30 19:22 23.61564 -75.62921 33997 ft 438 kts 290°
2026-04-30 19:23 23.67219 -75.81809 33988 ft 438 kts 290°
2026-04-30 19:24 23.70051 -75.91293 33979 ft 438 kts 290°
2026-04-30 19:25 23.74757 -76.07121 33984 ft 439 kts 290°
2026-04-30 19:26 23.78523 -76.19823 33977 ft 440 kts 290°
2026-04-30 19:27 23.81333 -76.29376 33983 ft 441 kts 290°
2026-04-30 19:28 23.84151 -76.38933 33976 ft 441 kts 290°
2026-04-30 19:29 23.87894 -76.51638 33976 ft 441 kts 290°
2026-04-30 19:30 23.91631 -76.64411 33981 ft 441 kts 290°
2026-04-30 19:31 23.95359 -76.77197 33988 ft 441 kts 290°
2026-04-30 19:31 23.98144 -76.86785 33980 ft 441 kts 290°
2026-04-30 19:32 23.99998 -76.93177 33978 ft 441 kts 290°
2026-04-30 19:32 24.01855 -76.99572 33976 ft 441 kts 290°
2026-04-30 19:33 24.03710 -77.05971 33977 ft 441 kts 290°
2026-04-30 19:33 24.05546 -77.12335 33976 ft 442 kts 290°
2026-04-30 19:34 24.07393 -77.18750 33977 ft 442 kts 290°
2026-04-30 19:35 24.10159 -77.28371 33964 ft 442 kts 290°
2026-04-30 19:35 24.12006 -77.34804 33965 ft 443 kts 290°
2026-04-30 19:36 24.13853 -77.41238 33964 ft 443 kts 290°
2026-04-30 19:36 24.16622 -77.50907 33970 ft 444 kts 290°
2026-04-30 19:37 24.18467 -77.57361 33971 ft 444 kts 290°
2026-04-30 19:37 24.20304 -77.63819 33964 ft 444 kts 290°
2026-04-30 19:38 24.22138 -77.70287 33968 ft 445 kts 290°
2026-04-30 19:38 24.23976 -77.76764 33971 ft 445 kts 290°
2026-04-30 19:39 24.25811 -77.83249 33984 ft 446 kts 290°
2026-04-30 19:39 24.28256 -77.89424 33964 ft 441 kts 304°
2026-04-30 19:40 24.31689 -77.94984 33973 ft 441 kts 306°
2026-04-30 19:40 24.35121 -78.00560 33972 ft 441 kts 306°
2026-04-30 19:41 24.38544 -78.06139 33975 ft 441 kts 305°
2026-04-30 19:41 24.41970 -78.11737 33973 ft 442 kts 305°
2026-04-30 19:42 24.45395 -78.17336 33974 ft 442 kts 306°
2026-04-30 19:42 24.48809 -78.22906 33975 ft 442 kts 305°
2026-04-30 19:43 24.52238 -78.28512 33984 ft 442 kts 306°
2026-04-30 19:44 24.57378 -78.36932 33984 ft 443 kts 305°
2026-04-30 19:44 24.60806 -78.42552 33985 ft 443 kts 305°
2026-04-30 19:45 24.64238 -78.48180 33991 ft 443 kts 305°
2026-04-30 19:45 24.67660 -78.53814 33986 ft 443 kts 305°
2026-04-30 19:46 24.71082 -78.59456 33989 ft 443 kts 305°
2026-04-30 19:46 24.74502 -78.65097 33987 ft 443 kts 305°
2026-04-30 19:47 24.77926 -78.70743 33979 ft 444 kts 305°
2026-04-30 19:47 24.81359 -78.76403 33981 ft 444 kts 305°
2026-04-30 19:48 24.84791 -78.82068 33988 ft 445 kts 305°
2026-04-30 19:48 24.88216 -78.87745 33989 ft 445 kts 305°
2026-04-30 19:49 24.91639 -78.93432 33752 ft 445 kts 305°
2026-04-30 19:49 24.95074 -78.99138 33234 ft 447 kts 305°
2026-04-30 19:49 24.96789 -79.01983 32969 ft 446 kts 305°
2026-04-30 19:50 24.98504 -79.04827 32713 ft 444 kts 305°
2026-04-30 19:50 25.00207 -79.07659 32476 ft 443 kts 305°
2026-04-30 19:50 25.01906 -79.10485 32224 ft 442 kts 305°
2026-04-30 19:50 25.03599 -79.13304 31976 ft 440 kts 305°
2026-04-30 19:51 25.05287 -79.16119 31733 ft 439 kts 305°
2026-04-30 19:51 25.06968 -79.18927 31489 ft 438 kts 305°
2026-04-30 19:51 25.08646 -79.21733 30855 ft 440 kts 304°
2026-04-30 19:51 25.10337 -79.24561 30218 ft 440 kts 304°
2026-04-30 19:52 25.11986 -79.27322 29729 ft 435 kts 304°
2026-04-30 19:52 25.13644 -79.30093 29161 ft 431 kts 304°
2026-04-30 19:52 25.15285 -79.32836 28585 ft 425 kts 304°
2026-04-30 19:52 25.16900 -79.35536 27664 ft 418 kts 304°
2026-04-30 19:53 25.18509 -79.38228 26904 ft 411 kts 303°
2026-04-30 19:53 25.20051 -79.40804 26108 ft 406 kts 303°
2026-04-30 19:53 25.21597 -79.43387 25280 ft 400 kts 303°
2026-04-30 19:53 25.23117 -79.45930 24486 ft 393 kts 303°
2026-04-30 19:54 25.24611 -79.48434 23717 ft 387 kts 303°
2026-04-30 19:54 25.26081 -79.50901 22829 ft 382 kts 303°
2026-04-30 19:54 25.27535 -79.53349 21966 ft 383 kts 303°
2026-04-30 19:54 25.29007 -79.55829 21081 ft 386 kts 303°
2026-04-30 19:55 25.30471 -79.58300 20245 ft 382 kts 303°
2026-04-30 19:55 25.31919 -79.60742 19419 ft 379 kts 303°
2026-04-30 19:55 25.33357 -79.63159 18615 ft 372 kts 303°
2026-04-30 19:55 25.34767 -79.65531 17765 ft 367 kts 303°
2026-04-30 19:56 25.36159 -79.67873 17089 ft 360 kts 303°
2026-04-30 19:56 25.37513 -79.70158 16614 ft 353 kts 303°
2026-04-30 19:56 25.38854 -79.72423 16090 ft 352 kts 303°
2026-04-30 19:56 25.40215 -79.74646 15738 ft 346 kts 304°
2026-04-30 19:57 25.41594 -79.76805 15404 ft 342 kts 306°
2026-04-30 19:57 25.42979 -79.78933 15124 ft 339 kts 306°
2026-04-30 19:57 25.44359 -79.81042 14836 ft 338 kts 306°
2026-04-30 19:57 25.45730 -79.83147 14544 ft 336 kts 306°
2026-04-30 19:58 25.47086 -79.85244 14250 ft 334 kts 305°
2026-04-30 19:58 25.48429 -79.87330 13960 ft 332 kts 305°
2026-04-30 19:58 25.49738 -79.89371 13787 ft 314 kts 305°
2026-04-30 19:58 25.50963 -79.91285 13480 ft 298 kts 305°
2026-04-30 19:59 25.52153 -79.93142 12993 ft 293 kts 305°
2026-04-30 19:59 25.53306 -79.94938 12504 ft 289 kts 305°
2026-04-30 19:59 25.55627 -79.98566 11835 ft 288 kts 305°
2026-04-30 20:00 25.56779 -80.00374 11508 ft 286 kts 305°
2026-04-30 20:00 25.57926 -80.02174 11176 ft 285 kts 305°
2026-04-30 20:00 25.59068 -80.03963 10844 ft 284 kts 305°
2026-04-30 20:00 25.60211 -80.05750 10522 ft 283 kts 305°
2026-04-30 20:01 25.62481 -80.09299 9859 ft 281 kts 304°
2026-04-30 20:01 25.63605 -80.11065 9517 ft 280 kts 304°
2026-04-30 20:01 25.64728 -80.12827 9188 ft 279 kts 304°
2026-04-30 20:02 25.66555 -80.16590 8635 ft 277 kts 294°
2026-04-30 20:02 25.67372 -80.18518 8384 ft 275 kts 294°
2026-04-30 20:03 25.68996 -80.22333 7877 ft 273 kts 294°
2026-04-30 20:03 25.69804 -80.24233 7598 ft 272 kts 294°
2026-04-30 20:03 25.70337 -80.25489 7414 ft 272 kts 294°
2026-04-30 20:03 25.71110 -80.28136 7057 ft 270 kts 277°
2026-04-30 20:04 25.71178 -80.29506 6869 ft 269 kts 268°
2026-04-30 20:04 25.71073 -80.31568 6599 ft 266 kts 266°
2026-04-30 20:04 25.70970 -80.33619 6327 ft 267 kts 267°
2026-04-30 20:05 25.70798 -80.37761 5676 ft 267 kts 267°
2026-04-30 20:05 25.70706 -80.39800 5408 ft 264 kts 267°
2026-04-30 20:05 25.70457 -80.43821 4927 ft 260 kts 265°
2026-04-30 20:06 25.70308 -80.45804 4607 ft 259 kts 264°
2026-04-30 20:06 25.70150 -80.47807 4285 ft 259 kts 264°
2026-04-30 20:06 25.69988 -80.49791 3965 ft 258 kts 264°
2026-04-30 20:06 25.69825 -80.51775 3652 ft 257 kts 264°
2026-04-30 20:07 25.69758 -80.53749 3330 ft 257 kts 277°
2026-04-30 20:07 25.70425 -80.55557 3042 ft 255 kts 307°
2026-04-30 20:07 25.73391 -80.57070 3013 ft 231 kts 351°
2026-04-30 20:08 25.74988 -80.56946 2985 ft 232 kts 18°
2026-04-30 20:08 25.76378 -80.56050 2990 ft 233 kts 41°
2026-04-30 20:08 25.77339 -80.54611 2983 ft 235 kts 66°
2026-04-30 20:08 25.77705 -80.52875 2989 ft 227 kts 89°
2026-04-30 20:09 25.77776 -80.51190 2978 ft 211 kts 88°
2026-04-30 20:09 25.77841 -80.49569 3011 ft 209 kts 88°
2026-04-30 20:09 25.77978 -80.46382 2621 ft 204 kts 89°
2026-04-30 20:10 25.78108 -80.43383 2134 ft 176 kts 91°
2026-04-30 20:10 25.78163 -80.42098 1914 ft 159 kts 92°
2026-04-30 20:10 25.78214 -80.40915 1711 ft 150 kts 90°
2026-04-30 20:11 25.78308 -80.38656 1338 ft 148 kts 92°
2026-04-30 20:11 25.78351 -80.37527 1154 ft 145 kts 93°
2026-04-30 20:11 25.78408 -80.36397 923 ft 149 kts 95°
2026-04-30 20:12 25.78515 -80.34121 542 ft 150 kts 91°
2026-04-30 20:12 25.78562 -80.32998 408 ft 147 kts 92°
2026-04-30 20:12 25.78603 -80.31855 197 ft 144 kts 92°
2026-04-30 20:13 25.78643 -80.30755 28 ft 137 kts 90°
2026-04-30 20:13 25.78677 -80.29821 15 ft 96 kts 87°
2026-04-30 20:13 25.78701 -80.29288 16 ft 44 kts 87°
2026-04-30 20:13 25.78711 -80.29035 15 ft 31 kts 88°
2026-04-30 20:14 25.78717 -80.28904 15 ft 13 kts 87°
2026-04-30 20:14 25.78729 -80.28809 15 ft 12 kts 75°
2026-04-30 20:14 25.78766 -80.28734 16 ft 11 kts 41°
2026-04-30 20:14 25.78822 -80.28678 16 ft 11 kts 42°
2026-04-30 20:15 25.78875 -80.28629 15 ft 9 kts 37°
2026-04-30 20:15 25.78913 -80.28598 15 ft 0 kts 36°
2026-04-30 20:15 25.78922 -80.28590 15 ft 3 kts 36°
2026-04-30 20:15 25.78937 -80.28578 15 ft 2 kts 36°
2026-04-30 20:16 25.78946 -80.28571 15 ft 2 kts 36°
2026-04-30 20:16 25.78955 -80.28563 15 ft 1 kts 35°
2026-04-30 20:16 25.78959 -80.28561 15 ft 0 kts 35°
2026-04-30 20:17 25.78959 -80.28560 15 ft 1 kts 35°
2026-04-30 20:17 25.78991 -80.28535 15 ft 10 kts 35°
2026-04-30 20:17 25.79046 -80.28494 15 ft 9 kts 31°
2026-04-30 20:17 25.79097 -80.28459 15 ft 8 kts 31°
2026-04-30 20:18 25.79138 -80.28431 15 ft 6 kts 31°
2026-04-30 20:18 25.79164 -80.28414 15 ft 0 kts 31°
2026-04-30 20:19 25.79166 -80.28412 15 ft 3 kts 31°
2026-04-30 20:19 25.79223 -80.28385 15 ft 13 kts 24°
2026-04-30 20:19 25.79288 -80.28328 15 ft 11 kts 44°
2026-04-30 20:19 25.79341 -80.28267 15 ft 12 kts 53°
2026-04-30 20:20 25.79365 -80.28192 15 ft 9 kts 77°
2026-04-30 20:20 25.79379 -80.28136 16 ft 6 kts 67°
2026-04-30 20:20 25.79407 -80.28114 15 ft 6 kts
2026-04-30 20:20 25.79448 -80.28120 15 ft 3 kts 350°
2026-04-30 20:21 25.79453 -80.28121 15 ft 0 kts 350°